Stations météo

Publicité
Saint-Brieuc, France (7120): Température de l'air & dewpoint: 21.05.2019 06:00:00 - 27.05.2019 06:00:00 (CEST)Saint-Brieuc, France (7120): Température de l'air 5cm: 21.05.2019 06:00:00 - 27.05.2019 06:00:00 (CEST)Saint-Brieuc, France (7120): Température de l'air -20cm & Température de l'air -100cm: 21.05.2019 06:00:00 - 27.05.2019 06:00:00 (CEST)Saint-Brieuc, France (7120): Vitesse du vent & gusts: 21.05.2019 06:00:00 - 27.05.2019 06:00:00 (CEST)Saint-Brieuc, France (7120): Direction du vent: 21.05.2019 06:00:00 - 27.05.2019 06:00:00 (CEST)Saint-Brieuc, France (7120): reduced air pressure: 21.05.2019 06:00:00 - 27.05.2019 06:00:00 (CEST)Saint-Brieuc, France (7120): visibility: 21.05.2019 06:00:00 - 27.05.2019 06:00:00 (CEST)Saint-Brieuc, France (7120): Ensoleillement: 21.05.2019 06:00:00 - 27.05.2019 06:00:00 (CEST)Saint-Brieuc, France (7120): Quantités de précipitations: 21.05.2019 06:00:00 - 27.05.2019 06:00:00 (CEST)
Date & Time tt [°C] td [°C] tt 5cm [°C] tt -20cm [°C] tt -100cm [°C] ff [km/h] ff [knt] fx [km/h] fx [knt] dd ppp [hPa] vv [km] sd [min] rr [mm]
27.05.2019 06:00:00 10,9 10,7 10,4 15,4 13,5 11 6 18 10 WNW 1015,6 6 0 0,0
27.05.2019 05:00:00 11,2 10,7 10,3 15,4 13,4 12 6 19 10 WNW 1015,7 10 0 0,0
27.05.2019 04:00:00 11,5 11,0 10,7 15,5 13,4 10 5 21 11 WNW 1015,8 9 0 0,0
27.05.2019 03:00:00 12,0 11,7 11,8 15,6 13,5 11 6 26 14 WNW 1016,1 10 0 0,0
27.05.2019 02:00:00 12,4 12,2 12,1 15,7 13,4 18 10 27 15 NW 1016,2 20 0 0,0
27.05.2019 01:00:00 13,4 13,2 13,2 15,7 13,4 10 6 21 12 NW 1016,3 4,6 0 0,2
27.05.2019 00:00:00 13,8 13,5 13,0 15,8 13,4 13 7 19 10 W 1016,5 4,1 0 0,0
26.05.2019 23:00:00 13,7 13,2 12,9 15,9 13,5 14 8 24 13 W 1016,7 20 0 0,0
26.05.2019 22:00:00 14,3 13,7 13,6 16,0 13,4 17 9 29 15 W 1016,7 6 0 0,2
26.05.2019 21:00:00 15,5 12,8 15,3 16,0 13,4 14 8 23 12 WSW 1016,5 20 0 0,0
26.05.2019 20:00:00 16,0 12,7 16,0 16,0 13,4 12 6 26 14 W 1016,9 20 0 0,0
26.05.2019 19:00:00 16,7 13,6 15,1 15,9 13,4 12 6 29 16 WSW 1017,0 20 7 0,0
26.05.2019 18:00:00 16,4 13,1 15,6 15,8 13,4 16 9 27 15 W 1017,5 20 0 0,0
26.05.2019 17:00:00 17,7 12,6 16,9 15,7 13,4 12 6 24 13 WSW 1017,6 20 28 0,0
26.05.2019 16:00:00 15,2 12,7 15,5 15,7 13,4 14 8 25 13 W 1018,5 20 0 0,0
26.05.2019 15:00:00 15,3 12,6 15,8 15,6 13,4 17 9 28 15 W 1018,8 20 0 0,0
26.05.2019 14:00:00 15,4 12,7 15,5 15,5 13,4 18 10 29 16 W 1019,1 20 0 0,0
26.05.2019 13:00:00 15,3 12,4 14,9 15,5 13,4 15 8 23 13 W 1019,4 20 0 0,0
26.05.2019 12:00:00 14,4 11,9 14,3 15,4 13,4 14 7 22 12 W 1019,7 20 0 0,0
26.05.2019 11:00:00 13,9 11,8 12,8 15,4 13,3 15 8 27 14 WNW 1019,7 20 6 0,2
26.05.2019 10:00:00 13,1 12,5 12,8 15,4 13,3 11 6 20 11 W 1020,2 3,4 1 0,0
26.05.2019 09:00:00 13,0 11,4 12,2 15,5 13,4 13 7 22 12 W 1020,3 8 6 0,0
26.05.2019 08:00:00 12,7 11,4 12,2 15,5 13,4 14 7 20 11 W 1020,1 18 3 0,0
26.05.2019 07:00:00 12,5 11,6 11,9 15,6 13,3 9 5 18 10 WSW 1020,2 20 0 0,0
26.05.2019 06:00:00 12,7 12,2 12,3 15,7 13,3 6 3 11 6 WSW 1020,2 20 0 0,0
26.05.2019 05:00:00 12,7 12,4 12,3 15,7 13,3 6 3 12 7 W 1020,3 4,9 0 0,0
26.05.2019 04:00:00 12,9 12,3 12,5 15,8 13,3 7 4 15 8 W 1020,8 14 0 0,0
26.05.2019 03:00:00 13,0 12,5 12,7 15,9 13,3 11 6 22 12 WNW 1021,2 20 0 0,0
26.05.2019 02:00:00 13,2 13,0 13,0 16,0 13,3 8 4 18 10 WNW 1021,4 8 0 0,0
26.05.2019 01:00:00 13,4 13,1 13,1 16,1 13,3 13 7 21 11 WNW 1021,9 11 0 0,2
26.05.2019 00:00:00 13,7 12,8 12,5 16,2 13,3 9 5 17 9 W 1022,0 20 0 0,0
25.05.2019 23:00:00 12,9 12,0 11,7 16,3 13,3 10 6 21 11 WNW 1022,0 20 0 0,0
25.05.2019 22:00:00 14,1 10,3 12,9 16,4 13,3 13 7 19 11 WNW 1021,6 20 30 0,0
25.05.2019 21:00:00 16,6 9,8 17,0 16,4 13,3 8 4 16 9 NW 1021,3 20 58 0,0
25.05.2019 20:00:00 16,0 13,1 16,9 16,3 13,3 7 4 11 6 ESE 1021,1 20 14 0,0
25.05.2019 19:00:00 15,5 13,2 16,8 16,2 13,3 6 3 18 10 ESE 1021,3 19 20 0,0
25.05.2019 18:00:00 16,2 12,9 19,1 16,0 13,3 8 4 17 9 E 1021,3 19 29 0,0
25.05.2019 17:00:00 16,9 14,2 19,3 15,9 13,3 10 6 21 11 ENE 1021,4 20 22 0,0
25.05.2019 16:00:00 17,6 13,1 20,6 15,6 13,3 5 3 20 11 ENE 1021,5 20 10 0,0
25.05.2019 15:00:00 17,7 12,2 21,2 15,4 13,2 12 6 24 13 NW 1021,9 20 6 0,0
25.05.2019 14:00:00 17,6 12,3 18,7 15,2 13,3 10 5 22 12 NW 1021,9 20 21 0,0
25.05.2019 13:00:00 16,9 11,4 18,0 15,0 13,2 10 5 22 12 NW 1022,1 20 11 0,0
25.05.2019 12:00:00 15,7 12,1 16,7 14,9 13,3 9 5 19 10 N 1022,4 20 8 0,0
25.05.2019 11:00:00 14,8 11,9 15,6 14,8 13,2 8 5 20 11 NNW 1022,4 20 0 0,0
25.05.2019 10:00:00 14,1 11,4 15,0 14,8 13,2 14 7 22 12 NW 1022,3 20 14 0,0
25.05.2019 09:00:00 13,8 11,7 13,0 14,8 13,2 14 8 25 14 NW 1021,9 20 23 0,0
25.05.2019 08:00:00 12,4 11,3 11,6 14,9 13,2 14 8 27 15 WNW 1021,7 16 3 0,0
25.05.2019 07:00:00 11,5 11,0 10,6 15,0 13,2 11 6 18 10 WNW 1021,5 12 0 0,0
25.05.2019 06:00:00 11,3 10,8 10,6 15,1 13,2 12 6 22 12 WNW 1021,1 14 0 0,0
25.05.2019 05:00:00 11,7 11,1 11,5 15,2 13,2 14 7 26 14 NW 1021,2 13 0 0,0
25.05.2019 04:00:00 11,7 11,2 10,3 15,3 13,2 17 9 27 14 NW 1021,3 15 0 0,0
25.05.2019 03:00:00 11,2 10,9 10,4 15,4 13,2 12 7 22 12 NW 1021,4 15 0 0,0
25.05.2019 02:00:00 11,6 10,8 11,0 15,5 13,2 15 8 25 13 NW 1021,7 20 0 0,0
25.05.2019 01:00:00 12,3 11,2 11,7 15,6 13,2 13 7 23 12 NW 1021,7 20 0 0,0
25.05.2019 00:00:00 12,4 10,8 11,5 15,7 13,2 13 7 25 14 WNW 1021,6 20 0 0,0
24.05.2019 23:00:00 12,0 10,4 10,9 15,9 13,2 12 7 24 13 WNW 1021,5 20 0 0,0
24.05.2019 22:00:00 12,2 10,3 11,4 16,0 13,2 15 8 26 14 NW 1021,0 20 0 0,0
24.05.2019 21:00:00 13,6 10,8 13,2 16,0 13,2 16 8 31 17 WNW 1020,6 20 3 0,0
24.05.2019 20:00:00 15,0 11,4 15,3 16,0 13,2 19 10 33 18 NW 1020,3 20 1 0,0
24.05.2019 19:00:00 16,2 11,4 16,8 16,0 13,2 19 11 30 16 NW 1020,1 20 12 0,0
24.05.2019 18:00:00 16,4 11,3 17,8 15,9 13,2 18 10 35 19 NW 1020,2 20 13 0,0
24.05.2019 17:00:00 17,2 10,1 18,1 15,7 13,1 16 9 32 17 NNW 1020,3 20 32 0,0
24.05.2019 16:00:00 17,0 10,6 18,1 15,5 13,1 16 9 32 17 NW 1020,5 20 11 0,0
24.05.2019 15:00:00 16,5 10,1 19,6 15,3 13,1 19 10 32 17 NW 1020,6 20 26 0,0
24.05.2019 14:00:00 16,5 9,7 20,4 15,1 13,1 14 8 30 16 NNW 1020,4 20 54 0,0
24.05.2019 13:00:00 16,4 9,8 20,9 14,8 13,1 16 9 29 16 NNW 1020,5 20 52 0,0
24.05.2019 12:00:00 16,3 10,2 19,3 14,7 13,1 16 9 27 15 N 1020,5 20 54 0,0
24.05.2019 11:00:00 15,3 9,0 15,9 14,5 13,1 15 8 27 15 NNW 1020,5 20 56 0,0
24.05.2019 10:00:00 13,8 10,6 14,5 14,5 13,1 15 8 28 15 NNW 1020,3 20 53 0,0
24.05.2019 09:00:00 11,1 10,2 9,9 14,6 13,1 13 7 20 11 NW 1020,1 17 24 0,0
24.05.2019 08:00:00 9,5 9,2 8,4 14,7 13,1 9 5 14 7 WNW 1019,8 7 31 0,0
24.05.2019 07:00:00 8,8 8,7 7,5 14,9 13,0 9 5 15 8 WNW 1019,7 4,3 12 0,0
24.05.2019 06:00:00 8,7 8,6 7,5 15,1 13,1 11 6 16 9 WNW 1019,2 3,0 0 0,0
24.05.2019 05:00:00 8,9 8,8 6,9 15,2 13,0 10 5 13 7 W 1018,9 2,7 0 0,0
24.05.2019 04:00:00 8,9 8,6 6,2 15,4 13,0 7 4 10 6 W 1018,9 4,5 0 0,0
24.05.2019 03:00:00 9,2 8,4 7,1 15,5 13,0 7 4 11 6 W 1018,9 8 0 0,0
24.05.2019 02:00:00 9,6 8,5 7,1 15,7 13,0 8 4 11 6 WNW 1019,0 16 0 0,0
24.05.2019 01:00:00 10,4 9,0 6,4 15,9 13,0 4 2 8 5 WNW 1019,0 20 0 0,0
24.05.2019 00:00:00 10,8 9,7 6,6 16,0 13,0 3 2 6 3 N 1018,9 20 0 0,0
23.05.2019 23:00:00 11,7 10,3 10,5 16,1 13,0 4 2 8 4 NE 1018,7 20 0 0,0
23.05.2019 22:00:00 12,0 10,2 11,4 16,2 13,0 6 4 11 6 NE 1018,3 20 7 0,0
23.05.2019 21:00:00 13,3 9,5 13,3 16,2 13,0 6 3 14 8 NE 1018,1 20 0 0,0
23.05.2019 20:00:00 13,8 10,4 14,6 16,2 13,0 8 4 18 10 NE 1017,8 20 4 0,0
23.05.2019 19:00:00 14,3 10,7 16,4 16,2 13,0 13 7 22 12 NE 1017,7 20 29 0,0
23.05.2019 18:00:00 14,9 10,1 16,5 16,1 13,0 14 8 19 11 NE 1017,6 20 8 0,0
23.05.2019 17:00:00 15,0 11,6 19,0 15,9 13,0 10 6 24 13 NE 1017,4 20 30 0,0
23.05.2019 16:00:00 15,2 12,0 19,2 15,6 13,0 16 9 23 12 NE 1017,5 20 10 0,0
23.05.2019 15:00:00 17,4 12,9 23,0 15,3 12,9 13 7 21 11 NE 1017,4 20 60 0,0
23.05.2019 14:00:00 16,9 12,2 19,6 15,1 12,9 13 7 21 11 NE 1017,4 20 56 0,0
23.05.2019 13:00:00 15,8 10,5 17,9 14,9 12,9 11 6 17 9 NE 1018,0 20 9 0,0
23.05.2019 12:00:00 18,3 10,1 20,4 14,7 12,9 4 2 11 6 NNW 1017,8 20 34 0,0
23.05.2019 11:00:00 17,2 9,9 20,1 14,6 12,9 3 2 9 5 NNW 1017,9 20 34 0,0
23.05.2019 10:00:00 15,9 8,1 19,8 14,5 12,9 5 3 11 6 NW 1018,0 20 60 0,0
23.05.2019 09:00:00 15,8 9,7 15,7 14,6 12,9 4 2 7 4 SE 1017,9 20 54 0,0
23.05.2019 08:00:00 12,2 7,9 9,7 14,7 12,9 4 2 9 5 SSE 1017,9 20 57 0,0
23.05.2019 07:00:00 10,3 6,6 6,4 14,8 12,9 3 1 13 7 SW 1017,8 20 12 0,0
23.05.2019 06:00:00 10,0 6,5 7,5 15,0 12,9 11 6 14 8 W 1018,1 20 0 0,0
23.05.2019 05:00:00 9,8 7,0 7,7 15,1 12,9 11 6 16 8 W 1018,0 20 0 0,0
23.05.2019 04:00:00 10,8 7,8 8,9 15,3 12,9 10 6 15 8 W 1018,1 20 0 0,0
23.05.2019 03:00:00 11,2 8,9 9,0 15,4 12,9 7 4 10 5 W 1018,4 20 0 0,0
23.05.2019 02:00:00 11,7 9,3 9,1 15,5 12,9 6 4 11 6 NW 1018,7 20 0 0,0
23.05.2019 01:00:00 13,4 9,4 11,1 15,7 12,9 9 5 14 8 W 1018,9 20 0 0,0
23.05.2019 00:00:00 14,6 10,0 11,6 15,8 12,9 5 3 13 7 W 1018,9 20 0 0,0
22.05.2019 23:00:00 14,4 9,8 9,9 15,9 12,8 7 4 10 6 W 1019,0 20 0 0,0
22.05.2019 22:00:00 16,2 10,9 12,5 16,0 12,9 3 1 21 11 N 1018,7 20 26 0,0
22.05.2019 21:00:00 20,0 10,1 19,0 16,0 12,9 11 6 21 11 WSW 1018,2 20 60 0,0
22.05.2019 20:00:00 21,2 9,4 21,4 15,9 12,8 9 5 16 9 S 1018,1 20 57 0,0
22.05.2019 19:00:00 19,1 12,1 19,3 15,8 12,9 9 5 22 12 ENE 1018,3 20 27 0,0
22.05.2019 18:00:00 19,0 12,5 20,1 15,6 12,9 11 6 21 11 ENE 1018,7 20 22 0,0
22.05.2019 17:00:00 19,1 12,8 19,4 15,4 12,9 11 6 23 12 NE 1019,0 20 20 0,0
22.05.2019 16:00:00 18,0 12,4 19,4 15,2 12,8 11 6 24 13 ENE 1019,5 20 23 0,0
22.05.2019 15:00:00 18,8 12,5 18,7 15,0 12,9 16 8 26 14 NE 1019,9 20 37 0,0
22.05.2019 14:00:00 17,2 12,1 19,2 14,7 12,8 15 8 22 12 NE 1020,4 20 7 0,0
22.05.2019 13:00:00 18,4 11,7 20,1 14,4 12,8 8 4 20 11 E 1020,4 20 37 0,0
22.05.2019 12:00:00 18,6 10,2 22,6 14,2 12,8 6 3 11 6 ESE 1020,7 20 60 0,0
22.05.2019 11:00:00 16,5 9,7 18,3 14,1 12,8 6 3 13 7 E 1020,8 20 44 0,0
22.05.2019 10:00:00 14,5 8,4 16,6 14,1 12,8 5 3 10 5 ESE 1021,2 20 56 0,0
22.05.2019 09:00:00 12,8 9,8 13,8 14,1 12,8 4 2 7 4 SE 1021,0 16 60 0,0
22.05.2019 08:00:00 9,7 9,6 7,0 14,2 12,8 0 0 4 2 N 1020,9 7 26 0,0
22.05.2019 07:00:00 9,1 8,6 4,4 14,3 12,8 3 2 9 5 S 1020,7 6 11 0,0
22.05.2019 06:00:00 8,3 8,0 3,7 14,5 12,8 5 3 7 4 S 1021,0 9 0 0,0
22.05.2019 05:00:00 8,3 7,2 4,3 14,7 12,8 3 2 8 4 S 1021,2 11 0 0,0
22.05.2019 04:00:00 8,6 7,7 4,7 14,8 12,8 0 0 4 2 N 1021,5 13 0 0,0
22.05.2019 03:00:00 9,9 8,3 5,9 15,0 12,8 4 2 7 4 W 1021,4 16 0 0,0
22.05.2019 02:00:00 9,8 8,2 5,5 15,2 12,8 4 2 6 3 W 1021,6 19 0 0,0
22.05.2019 01:00:00 10,1 7,9 5,9 15,4 12,8 4 2 6 3 W 1021,5 20 0 0,0
22.05.2019 00:00:00 10,5 8,6 5,6 15,6 12,8 4 2 5 3 W 1021,5 20 0 0,0
21.05.2019 23:00:00 10,4 8,7 6,2 15,7 12,8 3 1 5 3 N 1021,7 20 0 0,0
21.05.2019 22:00:00 11,6 8,8 8,7 15,8 12,8 3 2 9 5 NE 1021,3 20 25 0,0
21.05.2019 21:00:00 13,2 9,4 13,4 15,9 12,8 8 4 16 9 NE 1020,7 20 56 0,0
21.05.2019 20:00:00 14,5 10,3 16,9 15,9 12,8 11 6 19 10 NE 1020,4 20 60 0,0
21.05.2019 19:00:00 14,8 9,8 18,5 15,8 12,8 15 8 21 11 NNE 1020,3 20 60 0,0
21.05.2019 18:00:00 15,9 9,6 21,8 15,5 12,7 15 8 23 12 NE 1020,2 20 60 0,0
21.05.2019 17:00:00 16,3 9,2 22,2 15,3 12,8 15 8 21 11 NE 1020,0 20 60 0,0
21.05.2019 16:00:00 16,4 10,3 22,4 15,0 12,7 16 8 23 12 NE 1020,2 20 60 0,0
21.05.2019 15:00:00 15,8 11,0 18,4 14,6 12,7 15 8 22 12 NE 1020,1 20 50 0,0
21.05.2019 14:00:00 16,0 11,8 20,1 14,3 12,7 16 9 23 13 NE 1020,0 20 57 0,0
21.05.2019 13:00:00 16,5 11,0 19,8 14,0 12,7 15 8 22 12 NE 1019,7 20 57 0,0
21.05.2019 12:00:00 17,3 10,9 23,2 13,8 12,7 8 4 14 8 ENE 1019,5 20 60 0,0
21.05.2019 11:00:00 16,3 10,2 21,8 13,6 12,7 4 2 10 6 N 1019,4 20 60 0,0
21.05.2019 10:00:00 14,6 9,8 17,9 13,5 12,7 3 2 11 6 N 1019,3 20 60 0,0
21.05.2019 09:00:00 12,3 9,8 13,0 13,5 12,7 4 2 8 5 W 1018,9 20 60 0,0
21.05.2019 08:00:00 10,0 9,2 6,7 13,7 12,7 5 3 10 5 W 1018,9 15 47 0,0
21.05.2019 07:00:00 7,6 7,2 4,6 13,8 12,7 8 4 12 6 W 1018,7 12 10 0,0
21.05.2019 06:00:00 7,9 7,5 4,5 13,9 12,7 7 4 10 5 W 1018,3 15 0 0,2

tt = Température de l'air
td = dewpoint
tt 5cm = Température de l'air 5cm
tt -20cm = Température de l'air -20cm
tt -100cm = Température de l'air -100cm
ff = Vitesse du vent
fx = gusts
dd = Direction du vent
ppp = reduced air pressure
vv = visibility
sd = Ensoleillement
rr = Quantités de précipitations

stations d'obs. à proximité